Location: Unspecified
(0.0000°N, 0.0000°E)
Time: 09:54:03
(UTC+00:00)

COSMOS-2414 - Pass Details

Date: 24 April 2024
Orbit: 908 x 965 km, 83.0° (Epoch: 29 May)

Event Time Altitude Azimuth Distance (km) Brightness Sun altitude
Exits shadow 03:30:25 17° 145° (SE) 2,167 7.9 -35.8°
Maximum altitude 03:34:08 32° 93° (E) 1,533 7.4 -34.9°
Drops below altitude 10° 03:39:17 10° 32° (NNE) 2,588 8.7 -33.7°
Sets 03:41:58 0° 23° (NNE) 3,523 9.4 -33.1°
